Time,TemperatureF,DewpointF,PressureIn,WindDirection,WindDirectionDegrees,WindSpeedMPH,WindSpeedGustMPH,Humidity,HourlyPrecipIn,Conditions,Clouds,dailyrainin,SoftwareType,DateUTC
2016-09-26 07:47:00,48.0,47.0,30.24,West,266,0.0,0.0,96,-99.99,,,-99.99,,2016-09-26 12:47:00,
2016-09-26 07:56:00,48.0,47.0,30.24,West,266,0.0,0.0,96,-99.99,,,-99.99,,2016-09-26 12:56:00,
2016-09-26 08:06:00,47.0,46.0,30.24,West,265,0.0,0.0,96,-99.99,,,-99.99,,2016-09-26 13:06:00,
2016-09-26 08:15:00,48.0,47.0,30.24,West,266,0.0,0.0,95,-99.99,,,-99.99,,2016-09-26 13:15:00,
2016-09-26 08:35:00,52.0,49.0,30.25,West,266,0.0,0.0,91,-99.99,,,-99.99,,2016-09-26 13:35:00,
2016-09-26 08:45:00,53.0,51.0,30.25,West,266,0.0,0.0,93,-99.99,,,-99.99,,2016-09-26 13:45:00,
2016-09-26 08:54:00,56.0,53.0,30.25,WSW,249,0.0,-999.0,90,-99.99,,,-99.99,,2016-09-26 13:54:00,
2016-09-26 09:04:00,58.0,53.0,30.25,WSW,243,0.0,0.0,82,-99.99,,,-99.99,,2016-09-26 14:04:00,
2016-09-26 09:13:00,57.0,51.0,30.26,West,259,1.0,2.0,79,-99.99,,,-99.99,,2016-09-26 14:13:00,
2016-09-26 09:23:00,57.0,51.0,30.26,West,259,1.0,2.0,79,-99.99,,,-99.99,,2016-09-26 14:23:00,
2016-09-26 09:33:00,57.0,51.0,30.26,West,259,1.0,2.0,79,-99.99,,,-99.99,,2016-09-26 14:33:00,
2016-09-26 09:44:00,58.0,50.0,30.26,WSW,244,0.0,3.0,75,-99.99,,,-99.99,,2016-09-26 14:44:00,
2016-09-26 09:54:00,59.0,50.0,30.27,NNE,23,1.0,3.0,71,-99.99,,,-99.99,,2016-09-26 14:54:00,
2016-09-26 10:03:00,60.0,50.0,30.27,SW,218,1.0,5.0,69,-99.99,,,-99.99,,2016-09-26 15:03:00,
2016-09-26 10:13:00,61.0,50.0,30.27,SW,233,0.0,4.0,68,-99.99,,,-99.99,,2016-09-26 15:13:00,
2016-09-26 11:06:00,65.0,48.0,30.27,WSW,250,2.0,5.0,54,-99.99,,,-99.99,,2016-09-26 16:06:00,
2016-09-26 11:27:00,67.0,49.0,30.27,WSW,255,2.0,-999.0,52,-99.99,,,-99.99,,2016-09-26 16:27:00,
2016-09-26 12:18:00,69.0,40.0,30.26,NW,321,3.0,-999.0,35,-99.99,,,-99.99,,2016-09-26 17:18:00,
2016-09-26 12:45:00,71.0,40.0,30.25,NNE,18,3.0,6.0,32,-99.99,,,-99.99,,2016-09-26 17:45:00,
2016-09-26 13:05:00,71.0,40.0,30.24,NNE,32,4.0,8.0,32,-99.99,,,-99.99,,2016-09-26 18:05:00,
2016-09-26 13:15:00,71.0,40.0,30.24,West,281,3.0,8.0,33,-99.99,,,-99.99,,2016-09-26 18:15:00,
2016-09-26 13:46:00,71.0,40.0,30.22,WNW,295,4.0,9.0,33,-99.99,,,-99.99,,2016-09-26 18:46:00,
2016-09-26 14:07:00,72.0,41.0,30.22,WNW,293,3.0,10.0,33,-99.99,,,-99.99,,2016-09-26 19:07:00,
2016-09-26 14:15:00,72.0,40.0,30.21,West,272,4.0,9.0,31,-99.99,,,-99.99,,2016-09-26 19:15:00,
2016-09-26 14:24:00,72.0,41.0,30.21,WSW,255,3.0,9.0,32,-99.99,,,-99.99,,2016-09-26 19:24:00,
2016-09-26 14:39:00,72.0,42.0,30.20,WSW,238,4.0,10.0,34,-99.99,,,-99.99,,2016-09-26 19:39:00,
2016-09-26 14:46:00,73.0,41.0,30.20,NE,46,2.0,8.0,32,-99.99,,,-99.99,,2016-09-26 19:46:00,
2016-09-26 15:04:00,73.0,43.0,30.19,North,354,2.0,8.0,34,-99.99,,,-99.99,,2016-09-26 20:04:00,
2016-09-26 15:13:00,73.0,42.0,30.19,North,11,2.0,6.0,33,-99.99,,,-99.99,,2016-09-26 20:13:00,
2016-09-26 15:34:00,73.0,41.0,30.19,NNE,32,2.0,7.0,32,-99.99,,,-99.99,,2016-09-26 20:34:00,
2016-09-26 15:46:00,73.0,43.0,30.18,NW,326,3.0,10.0,34,-99.99,,,-99.99,,2016-09-26 20:46:00,
2016-09-26 15:54:00,73.0,43.0,30.18,NW,326,3.0,10.0,34,-99.99,,,-99.99,,2016-09-26 20:54:00,
2016-09-26 16:04:00,72.0,42.0,30.18,NNW,330,4.0,10.0,34,-99.99,,,-99.99,,2016-09-26 21:04:00,
2016-09-26 16:13:00,73.0,44.0,30.17,ENE,72,3.0,11.0,35,-99.99,,,-99.99,,2016-09-26 21:13:00,
2016-09-26 16:24:00,73.0,43.0,30.17,WNW,290,4.0,8.0,34,-99.99,,,-99.99,,2016-09-26 21:24:00,